Regional Weather Roundup
Issued by NWS

Home | Current Version | Previous Version | Text Only | Print | Product List | Glossary Off
Versions: 1 2 3 4 5 6 7 8 9 10 11 12 13 14 15 16 17 18 19 20 21 22 23 24 25 26 27 28 29 30 31 32 33 34 35 36 37 38 39 40 41 42 43 44 45 46 47 48 49 50

333
ASUS45 KBOI 261110
RWRID

IDAHO REGIONAL WEATHER ROUNDUP
NATIONAL WEATHER SERVICE BOISE ID
500 AM MDT FRI MAY 26 2017

NOTE: "FAIR" INDICATES FEW OR NO CLOUDS BELOW 12000 FEET
WITH NO SIGNIFICANT WEATHER AND/OR OBSTRUCTIONS TO VISIBILITY

IDZ012-014-261200-
SOUTHWEST IDAHO


CITY           SKY/WX    TMP DP  RH WIND       PRES   REMARKS
BOISE          CLOUDY    50  43  77 W6        29.83R
CALDWELL       CLOUDY    51  41  68 W12       29.84R
MOUNTAIN HOME  MOCLDY    51  42  71 N3        29.83S
$$

IDZ016-017-261200-
SOUTHCENTRAL IDAHO


CITY           SKY/WX    TMP DP  RH WIND       PRES   REMARKS
BURLEY         LGT RAIN  44  43  96 W8        29.83S FOG
JEROME         LGT RAIN  44  43  96 S6        29.86S
TWIN FALLS     LGT RAIN  42  42 100 S8        29.86F
$$

IDZ019>023-261200-
SOUTHEAST IDAHO


CITY           SKY/WX    TMP DP  RH WIND       PRES   REMARKS
IDAHO FALLS    CLOUDY    40  34  79 CALM      29.83R
POCATELLO      LGT RAIN  46  41  82 NW14      29.81F
REXBURG        CLOUDY    40  30  67 NE7       29.82S
$$

IDZ006-010-011-018-031-032-261200-
CENTRAL IDAHO MOUNTAINS


CITY           SKY/WX    TMP DP  RH WIND       PRES   REMARKS
MCCALL         MOCLDY    42  37  82 N8        29.84R
HAILEY         RAIN      41  37  87 CALM      29.87F
STANLEY          N/A     35  33  92 S6        29.88S WCI  30
SALMON         CLOUDY    45  39  81 SE6       29.88S
CHALLIS        CLOUDY    44  39  82 N3        29.86R
$$

IDZ002-004-006-007-026-261200-
NORTHERN IDAHO


CITY           SKY/WX    TMP DP  RH WIND       PRES   REMARKS
LEWISTON       CLOUDY    50  43  77 W3        29.88R
LOWELL           N/A     46  42  86 N3        29.92R
COEUR D`ALENE  CLEAR     46  41  82 E6        29.91R
MULLAN PASS    CLEAR     39  32  76 VRB6      29.94R WCI  35
$$




USA.gov is the U.S. government's official web portal to all federal, state and local government web resources and services.